Flag for U.S.A. Weather past 2 weeks in Chattanooga, Tennessee, U.S.A.

Now
54 °F

Clear.


Feels Like: 54 °F
Forecast: 49 / 68 °F
Wind: No wind

Location: Lovell Field

Current Time: Apr 21, 2015 at 3:01:39 AM

Latest Report: Apr 21, 2015 at 1:53 AM


Visibility: 10 mi

Pressure: 29.92 "Hg

Humidity: 69%

Dew point: 44 °F

Location of ChattanoogaLocation

Historic Weather in Chattanooga — Graph

°F

Chattanooga temperature yesterday

Maximum temperature yesterday: 73 °F (at 1:53 PM)
Minimum temperature yesterday: 57 °F (at 2:53 AM)
Average temperature yesterday: 64 °F

Past Weeks' High & Low Weather Summary

 TemperatureHumidityPressure
High85 °F (Apr 9, 1:53 PM)100% (Apr 18, 6:53 AM)30.24 "Hg (Apr 18, 6:53 AM)
Low47 °F (Apr 11, 6:53 AM)26% (Apr 11, 5:53 PM)29.59 "Hg (Apr 19, 6:53 PM)
Average66 °F76%30.04 "Hg
* Reported Apr 6 1:53 AM — Apr 21 1:53 AM, Chattanooga, Weather by CustomWeather, © 2015

Note: Actual official high and low records may vary slightly from our data, if they occured in-between our weather recording intervals... More about our weather records

Advertising

Chattanooga weather history for previous 24 hours

 ConditionsComfort  
Time TempWeatherWind HumidityBarometerVisibility
1:53 AM
Tue, Apr 21
54 °FClear.No wind69%29.92 "Hg10 mi
12:53 AM57 °FClear.5 mph62%29.91 "Hg10 mi
11:53 PM
Mon, Apr 20
58 °FPassing clouds.3 mph60%29.89 "Hg10 mi
10:53 PM59 °FPassing clouds.6 mph58%29.88 "Hg10 mi
9:53 PM61 °FPassing clouds.10 mph58%29.84 "Hg10 mi
8:53 PM65 °FPartly sunny.12 mph49%29.79 "Hg10 mi
7:53 PM66 °FScattered clouds.13 mph43%29.76 "Hg10 mi
6:53 PM68 °FScattered clouds.15 mph44%29.73 "Hg10 mi
5:53 PM69 °FPartly sunny.16 mph44%29.71 "Hg10 mi
4:53 PM70 °FScattered clouds.15 mph47%29.70 "Hg10 mi
3:53 PM73 °FBroken clouds.17 mph43%29.69 "Hg10 mi
2:53 PM73 °FBroken clouds.16 mph46%29.71 "Hg10 mi
1:53 PM73 °FScattered clouds.20 mph44%29.72 "Hg10 mi
12:53 PM71 °FBroken clouds.18 mph53%29.73 "Hg10 mi
11:53 AM71 °FPartly sunny.8 mph59%29.72 "Hg10 mi
10:53 AM68 °FPartly sunny.10 mph68%29.71 "Hg10 mi
9:54 AM64 °FScattered clouds.9 mph84%29.71 "Hg10 mi
8:53 AM61 °FScattered clouds.10 mph87%29.68 "Hg10 mi
7:53 AM58 °FPassing clouds.3 mph93%29.67 "Hg10 mi
6:53 AM58 °FPartly cloudy.3 mph93%29.65 "Hg10 mi
5:53 AM59 °FPassing clouds.8 mph90%29.67 "Hg10 mi
4:53 AM60 °FHeavy rain. Fog.22 mph93%29.71 "Hg4 mi
3:53 AM58 °FFog.No wind97%29.67 "Hg4 mi
Weather by CustomWeather, © 2015

See weather overviewHow to use our weather pages